DW5714 Weather Reports


time (UTC)temp
F
wind
direction
speed
knots
gust
knots
rain 1hr
in
rain 24hr
in
rain mn
in
humidity
%
barometer
mb
20260506221509 45 301 2.6 5.2 0.00 0.00 0.00 97 1010.2
20260506220008 45 334 2.6 6.1 0.00 0.00 0.00 97 1010.1
20260506214517 46 336 3.5 7.8 0.00 0.00 0.00 96 1009.9
20260506213003 46 328 3.5 7.0 0.00 0.00 0.00 97 1009.6
20260506211601 47 323 2.6 6.1 0.00 0.00 0.00 96 1009.0
20260506210059 47 330 1.7 4.3 0.00 0.00 0.00 96 1008.7
20260506204606 48 315 1.7 5.2 0.00 0.00 0.00 96 1008.4
20260506203053 48 331 2.6 6.1 0.00 0.00 0.00 95 1008.1
20260506201549 50 338 3.5 7.0 0.00 0.00 0.00 95 1008.0
20260506200044 52 329 3.5 7.0 0.00 0.00 0.00 95 1007.9
20260506194544 55 340 0.0 5.2 0.00 0.00 0.00 97 1007.5
20260506193047 56 237 0.0 7.8 0.00 0.00 0.00 98 1007.2
20260506191543 56 141 0.0 4.3 0.00 0.00 0.00 98 1007.1
20260506190042 56 219 0.0 4.3 0.00 0.00 0.00 98 1007.0
20260506184544 56 160 0.0 3.5 0.00 0.00 0.00 99 1007.2
20260506183041 56 136 0.9 4.3 0.00 0.00 0.00 98 1006.9
20260506181539 56 133 0.0 7.0 0.00 0.00 0.00 98 1007.0
20260506180038 56 148 0.0 4.3 0.00 0.00 0.00 98 1007.0
20260506174538 56 129 0.0 4.3 0.00 0.00 0.00 99 1007.0
20260506173036 56 128 0.9 6.1 0.00 0.00 0.00 99 1007.1
20260506171535 56 134 0.9 7.8 0.00 0.00 0.00 99 1007.1
20260506170033 55 152 0.0 5.2 0.00 0.00 0.00 99 1007.2
20260506164533 55 153 0.0 8.7 0.00 0.00 0.00 99 1007.3
20260506163032 55 119 0.9 4.3 0.00 0.00 0.00 99 1007.4
20260506161533 55 155 0.0 5.2 0.00 0.00 0.00 99 1007.4
20260506160033 55 117 0.0 5.2 0.00 0.00 0.00 99 1007.5
20260506154530 55 136 0.0 3.5 0.00 0.00 0.00 99 1007.7
20260506153040 55 192 0.9 7.0 0.00 0.00 0.00 99 1007.5
20260506151529 55 132 2.6 6.1 0.00 0.00 0.00 99 1007.4
20260506150028 55 158 0.0 4.3 0.00 0.00 0.00 99 1007.4
20260506144549 54 175 0.0 3.5 0.00 0.00 0.00 99 1007.4
20260506143028 54 141 0.9 5.2 0.00 0.00 0.00 99 1007.1
20260506141525 54 164 0.9 4.3 0.00 0.00 0.00 99 1007.4
20260506140035 53 158 1.7 2.6 0.00 0.00 0.00 99 1007.6
20260506134523 53 134 0.0 3.5 0.00 0.00 0.00 99 1008.0
20260506133020 53 153 0.0 0.0 0.00 0.00 0.00 99 1008.3
20260506131525 53 126 0.0 0.0 0.00 0.00 0.00 99 1008.7
20260506130018 53 126 0.0 0.0 0.00 0.00 0.00 99 1008.6
20260506124514 53 126 0.0 0.0 0.00 0.00 0.00 99 1008.1
20260506123014 53 126 0.0 0.0 0.00 0.00 0.00 99 1008.3
20260506121510 53 126 0.0 0.0 0.00 0.00 0.00 99 1008.3
20260506120018 52 126 0.0 0.0 0.00 0.00 0.00 99 1008.3
20260506114517 52 126 0.0 0.0 0.00 0.00 0.00 99 1008.3
20260506113007 52 126 0.0 1.7 0.00 0.00 0.00 98 1008.3
20260506111506 52 124 0.0 0.0 0.00 0.00 0.00 98 1008.6
20260506110004 52 126 0.0 0.0 0.00 0.00 0.00 98 1008.7
20260506104503 52 126 0.0 0.0 0.00 0.00 0.00 97 1008.5
20260506103002 52 126 0.0 2.6 0.00 0.00 0.00 97 1008.3
20260506101600 53 132 0.0 0.0 0.00 0.00 0.00 96 1008.1
20260506100109 54 132 0.0 2.6 0.00 0.00 0.00 94 1008.1
20260506094605 54 144 0.0 0.0 0.00 0.00 0.00 93 1007.9
20260506093058 55 144 0.0 3.5 0.00 0.00 0.00 91 1007.7
20260506091557 54 132 0.0 2.6 0.00 0.00 0.00 93 1007.7
20260506090055 54 159 0.0 2.6 0.00 0.00 0.00 97 1007.9
20260506084556 53 155 0.0 0.0 0.00 0.00 0.00 98 1008.0
20260506083057 53 154 0.0 0.0 0.00 0.00 0.00 99 1007.7
20260506081605 53 173 0.0 1.7 0.00 0.00 0.00 99 1007.7
20260506073051 54 173 0.0 2.6 0.00 0.00 0.00 99 1007.9
20260506071548 54 33 0.0 0.0 0.00 0.00 0.00 99 1008.1
20260506061546 53 342 0.0 0.0 0.00 0.00 0.00 99 1008.8
20260506044544 54 343 0.0 0.0 0.00 0.00 0.00 99 1009.8
20260506043027 54 343 0.0 1.7 0.00 0.00 0.00 99 1009.9
20260506041525 55 5 0.0 0.0 0.00 0.00 0.00 99 1009.9
20260506040022 55 40 0.0 1.7 0.00 0.00 0.00 99 1010.0
20260506034522 54 41 0.0 0.0 0.00 0.00 0.00 99 1010.0
20260506033026 55 41 0.0 0.0 0.00 0.00 0.00 99 1010.1
20260506031537 55 41 0.0 0.0 0.00 0.00 0.00 99 1009.9
20260506030018 56 41 0.0 0.0 0.00 0.00 0.00 99 1009.8
20260506024526 56 41 0.0 2.6 0.00 0.00 0.00 99 1009.7
20260506023018 56 79 0.0 0.0 0.00 0.00 0.00 99 1009.7
20260506021518 57 79 0.0 0.0 0.00 0.00 0.00 99 1009.6
20260506020017 57 79 0.0 2.6 0.00 0.00 0.00 99 1009.4
20260506014516 57 79 0.0 0.0 0.00 0.00 0.00 99 1009.6
20260506013020 57 79 0.0 0.0 0.00 0.00 0.00 99 1009.4
20260506011518 57 79 0.0 0.0 0.00 0.00 0.00 99 1009.1
20260506010040 57 79 0.0 0.0 0.00 0.00 0.00 99 1008.9
20260506004514 57 79 0.0 0.0 0.00 0.00 0.00 98 1008.8
20260506003014 57 79 0.0 0.0 0.00 0.00 0.00 98 1008.6
20260506001513 58 78 0.0 0.9 0.00 0.00 0.00 98 1008.6
20260506000014 57 78 0.0 0.0 0.00 0.00 0.00 98 1008.5
20260505234512 58 78 0.0 0.0 0.00 0.00 0.00 98 1008.4
20260505233012 58 78 0.0 0.0 0.00 0.00 0.00 98 1008.5
20260505231512 59 78 0.0 1.7 0.00 0.00 0.00 98 1008.3
20260505230009 59 78 0.0 0.0 0.00 0.00 0.00 97 1008.2
20260505224509 59 78 0.0 0.9 0.00 0.00 0.00 97 1008.5
20260505223008 59 78 0.0 0.9 0.00 0.00 0.00 96 1008.1